| Date | Temp | Humidity | Rainfall | Dew Point | Wind Direction | Wind Speed | Wind Pressure | Condition | Visibility |
|---|---|---|---|---|---|---|---|---|---|
| 2025-05-20 11:02:51 | 30 | 71 | 0.0 | 25 | 220 | 7.6 | 1010 | Partly Cloudy (Day) | 20 KM |
| 2025-05-20 10:00:41 | 30 | 75 | 0.00 | 25 | 230 | 9.5 | 1010 | Partly Cloudy (Day) | 20KM |
| 2025-05-20 09:03:37 | 28 | 79 | 0.00 | 24 | 220 | 11.4 | 1011 | Partly Cloudy (Day) | 20KM |
| 2025-05-20 07:00:18 | 26 | 88 | 0 | 24 | 210 | 7.6 | 1009 | Cloudy | 20 KM |
| 2025-05-20 05:58:11 | 26 | 91 | 0 | 24 | 240 | 9.5 | 1009 | Cloudy | 10 KM |
| 2025-05-20 05:01:34 | 26 | 93 | 0 | 24 | 240 | 5.7 | 1008 | Cloudy | 10 KM |
| 2025-05-20 04:00:00 | 26 | 93 | 0 | 25 | 220 | 5.7 | 1008 | Lightning | 10 KM |
| 2025-05-20 03:01:18 | 26 | 91 | 0 | 24 | 190 | 5.7 | 1008 | Lightning | 10 KM |
| 2025-05-20 01:58:03 | 26 | 92 | 25 | 170 | 7.6 | 1009 | Partly Cloudy (Night) | 10 KM | |
| 2025-05-20 00:56:20 | 26 | 90 | 25 | 160 | 5.7 | 1009 | Partly Cloudy (Night) | 10 KM | |
| 2025-05-19 23:58:36 | 26 | 90 | 25 | 170 | 5.7 | 1010 | Partly Cloudy (Night) | 10 KM | |
| 2025-05-19 22:59:59 | 26 | 91 | 25 | 150 | 5.7 | 1010 | Partly Cloudy (Night) | 10 KM | |
| 2025-05-19 21:59:04 | 27 | 90 | 25 | 180 | 5.7 | 1009 | Night Shower | 10 KM | |
| 2025-05-19 20:59:16 | 28 | 86 | 0.00 | 25 | 150 | 9.5 | 1009 | Partly Cloudy (Night) | 10KM |
| 2025-05-19 20:01:43 | 29 | 79 | 0.00 | 25 | 230 | 5.7 | 1009 | Partly Cloudy (Night) | 10KM |
| 2025-05-19 19:02:31 | 29 | 76 | 0.00 | 24 | 310 | 5.7 | 1007 | Night Thunderstorm | 10KM |
| 2025-05-19 18:01:05 | 30 | 74 | 0.00 | 24 | 290 | 7.6 | 1007 | Night Thunderstorm | 15KM |
| 2025-05-19 17:01:09 | 31 | 69 | 0.0 | 24 | 350 | 7.6 | 1006 | Partly Cloudy (Day) | 20 km |
| 2025-05-19 16:00:42 | 32 | 62 | 0.0 | 24 | 300 | 13.3 | 1006 | Partly Cloudy (Day) | 20 km |
| 2025-05-19 15:00:23 | 31 | 72 | 0.0 | 25 | 350 | 11.4 | 1007 | Partly Cloudy (Day) | 20 km |
| 2025-05-19 14:00:50 | 31 | 73 | 0.0 | 25 | 310 | 13.3 | 1008 | Partly Cloudy (Day) | 20 km |
| 2025-05-19 12:58:02 | 32 | 68 | 25 | 320 | 11.4 | 1008 | Partly Cloudy (Day) | 20 KM | |
| 2025-05-19 12:02:27 | 31 | 69 | 25 | 150 | 7.6 | 1009 | Partly Cloudy (Day) | 20 KM | |
| 2025-05-19 11:01:23 | 30 | 71 | 24 | 150 | 5.7 | 1009 | Partly Cloudy (Day) | 20 KM | |
| 2025-05-19 09:59:45 | 29 | 75 | 0.0 | 24 | 160 | 3.0 | 1010 | Partly Cloudy (Day) | 10 KM |